Location: Artiguedieu
(43.5000°N, 0.5454°E)
Time: 09:11:25
(UTC+00:00)

Vanguard 1 Rocket - Pass Details

Date: 28 July 2021
Orbit: 650 x 4226 km, 34.3° (Epoch: 24 September)

Event Time Altitude Azimuth Distance (km) Brightness Sun altitude
Rises 14:06:27 0° 264° (W) 5,866 12.0 54.5°
Reaches altitude 10° 14:11:18 10° 258° (WSW) 4,254 11.6 53.7°
Maximum altitude 14:20:30 40° 194° (SSW) 1,645 9.9 52.3°
Drops below altitude 10° 14:25:52 10° 124° (SE) 2,486 9.6 51.4°
Sets 14:28:00 0° 116° (ESE) 3,230 10.0 51.1°
